Weather History for New York, NY

Change the Weather History Date:

Wednesday, February 6, 2013

  Actual Average Record
Temperature  
Mean Temperature 35 °F 34 °F  
Max Temperature 40 °F 41 °F 69 °F (2008)
Min Temperature 30 °F 27 °F 4 °F (1995)
Degree Days  
Heating Degree Days 30 31  
Month to date heating degree days 215 188  
Since 1 July heating degree days 2564 2787  
Cooling Degree Days 0 0  
Month to date cooling degree days 0 0  
Year to date cooling degree days 0 0  
Moisture  
Dew Point 20 °F    
Average Humidity 59    
Maximum Humidity 85    
Minimum Humidity 32    
Precipitation  
Precipitation T in 0.10 in 1.51 in (2004)
Month to date precipitation 0.06 0.58  
Year to date precipitation 2.70 3.75  
Snow  
Snow 0.00 in 0.30 in 12.80 in (1978)
Month to date snowfall 1.0 1.9  
Since 1 July snowfall 4.0 14.8  
Snow Depth 0.00 in    
Sea Level Pressure  
Sea Level Pressure 30.09 in    
Wind  
Wind Speed 11 mph (NW)    
Max Wind Speed 24 mph    
Max Gust Speed 29 mph    
Visibility 8 miles    
Events Snow    
T = Trace of Precipitation, MM = Missing Value Source: NWS Daily Summary

Daily Weather History Graph

Daily Weather History Graph

Search for Another Location

Airport:

Trip Planner

Search our weather history database for the weather conditions in past years. The results will help you decide how hot, cold, wet, or windy it might be!

Date:

Astronomy

Feb. 06, 2013 Rise Set
Actual Time 7:00 AM EST 5:19 PM EST
Civil Twilight 6:31 AM EST 5:48 PM EST
Nautical Twilight 5:59 AM EST 6:20 PM EST
Astronomical Twilight 5:27 AM EST 6:52 PM EST
Moon 3:42 AM EST (2/6) 1:34 PM EST (2/6)
Length of Visible Light 11h 16m
Length of Day
10h 19m
Waning Crescent, 17% of the Moon is Illuminated
Feb 6
Waning Crescent
Feb 10
New
Feb 17
First Quarter
Feb 25
Full
Mar 4
Last Quarter

Hourly Weather History & Observations

Time (EST) Temp. Windchill Dew Point Humidity Pressure Visibility Wind Dir Wind Speed Gust Speed Precip Events Conditions
12:51 AM 30.0 °F 24.1 °F 27.0 °F 88% 29.92 in 3.0 mi NNE 5.8 mph - 0.00 in Snow Light Snow
1:44 AM 30.2 °F 26.7 °F 26.6 °F 86% 29.93 in 4.0 mi ENE 3.5 mph - 0.00 in Snow Light Snow
1:51 AM 30.0 °F 26.5 °F 27.0 °F 88% 29.93 in 3.0 mi NE 3.5 mph - 0.00 in Snow Light Snow
2:05 AM 30.2 °F 25.4 °F 26.6 °F 86% 29.93 in 3.0 mi ENE 4.6 mph - 0.00 in Snow Light Snow
2:49 AM 30.2 °F 26.7 °F 28.4 °F 93% 29.93 in 3.0 mi East 3.5 mph - 0.00 in Snow Light Freezing Drizzle
2:51 AM 30.0 °F 26.5 °F 28.0 °F 92% 29.93 in 3.0 mi East 3.5 mph - 0.00 in Snow Light Freezing Drizzle
3:26 AM 30.2 °F 25.4 °F 26.6 °F 86% 29.93 in 4.0 mi ESE 4.6 mph - 0.00 in   Overcast
3:51 AM 30.0 °F - 28.0 °F 92% 29.94 in 5.0 mi Calm Calm - 0.00 in   Overcast
4:10 AM 30.2 °F - 28.4 °F 93% 29.94 in 4.0 mi Calm Calm - N/A   Overcast
4:51 AM 32.0 °F 27.5 °F 28.0 °F 85% 29.96 in 6.0 mi West 4.6 mph - N/A   Overcast
5:51 AM 32.0 °F 23.6 °F 26.1 °F 79% 29.98 in 7.0 mi WNW 10.4 mph - N/A   Scattered Clouds
6:51 AM 32.0 °F 24.2 °F 26.1 °F 79% 30.01 in 7.0 mi WNW 9.2 mph - N/A   Mostly Cloudy
7:51 AM 32.0 °F 24.2 °F 25.0 °F 75% 30.05 in 7.0 mi West 9.2 mph - N/A   Partly Cloudy
8:51 AM 33.1 °F 24.4 °F 25.0 °F 72% 30.07 in 7.0 mi WNW 11.5 mph - N/A   Clear
9:51 AM 34.0 °F 23.8 °F 21.9 °F 61% 30.09 in 10.0 mi NW 16.1 mph - N/A   Partly Cloudy
10:51 AM 36.0 °F 28.5 °F 24.1 °F 62% 30.10 in 10.0 mi WNW 10.4 mph - N/A   Scattered Clouds
11:51 AM 37.9 °F 30.5 °F 19.9 °F 48% 30.09 in 10.0 mi West 11.5 mph 20.7 mph N/A   Mostly Cloudy
12:51 PM 37.0 °F 28.5 °F 19.0 °F 48% 30.10 in 10.0 mi WNW 13.8 mph 21.9 mph N/A   Mostly Cloudy
1:51 PM 37.9 °F 30.0 °F 19.0 °F 47% 30.10 in 10.0 mi NW 12.7 mph - N/A   Mostly Cloudy
2:51 PM 39.0 °F 30.3 °F 16.0 °F 39% 30.12 in 10.0 mi WNW 16.1 mph 26.5 mph N/A   Mostly Cloudy
3:51 PM 39.0 °F 29.9 °F 18.0 °F 43% 30.14 in 10.0 mi NW 17.3 mph 24.2 mph N/A   Scattered Clouds
4:51 PM 37.9 °F 28.9 °F 18.0 °F 45% 30.17 in 10.0 mi WNW 16.1 mph 26.5 mph N/A   Scattered Clouds
5:51 PM 37.0 °F 27.7 °F 15.1 °F 41% 30.20 in 10.0 mi NW 16.1 mph - N/A   Scattered Clouds
6:51 PM 36.0 °F 25.3 °F 14.0 °F 41% 30.25 in 10.0 mi NW 19.6 mph - N/A   Scattered Clouds
7:51 PM 35.1 °F 25.5 °F 12.9 °F 40% 30.27 in 10.0 mi NW 15.0 mph 23.0 mph N/A   Clear
8:51 PM 34.0 °F 23.4 °F 10.9 °F 38% 30.31 in 10.0 mi NNW 17.3 mph 25.3 mph N/A   Clear
9:51 PM 32.0 °F 22.5 °F 7.0 °F 35% 30.32 in 10.0 mi NNW 12.7 mph 21.9 mph N/A   Clear
10:51 PM 30.9 °F 21.7 °F 5.0 °F 33% 30.35 in 10.0 mi NNW 11.5 mph - N/A   Clear
11:51 PM 30.9 °F 23.5 °F 1.0 °F 28% 30.35 in 10.0 mi North 8.1 mph - N/A   Clear